Year,Month,Day,Hour,Minute,Value (Times are PST for temperature in C)
2012,08,29,00,00,14.80
2012,08,29,00,01,14.70
2012,08,29,00,02,14.70
2012,08,29,00,03,14.60
2012,08,29,00,04,14.60
2012,08,29,00,05,14.50
2012,08,29,00,06,14.40
2012,08,29,00,07,14.40
2012,08,29,00,08,14.30
2012,08,29,00,09,14.30
2012,08,29,00,10,14.30
2012,08,29,00,11,14.30
2012,08,29,00,12,14.30
2012,08,29,00,13,14.20
2012,08,29,00,14,14.20
2012,08,29,00,15,14.20
2012,08,29,00,16,14.20
2012,08,29,00,17,14.20
2012,08,29,00,18,14.20
2012,08,29,00,19,14.20
2012,08,29,00,20,14.10
2012,08,29,00,21,14.10
2012,08,29,00,22,14.10
2012,08,29,00,23,14.10
2012,08,29,00,24,14.00
2012,08,29,00,25,14.00
2012,08,29,00,26,13.90
2012,08,29,00,27,13.90
2012,08,29,00,28,13.90
2012,08,29,00,29,13.90
2012,08,29,00,30,13.90
2012,08,29,00,31,13.90
2012,08,29,00,32,13.90
2012,08,29,00,33,13.90
2012,08,29,00,34,13.90
2012,08,29,00,35,13.90
2012,08,29,00,36,13.90
2012,08,29,00,37,13.80
2012,08,29,00,38,13.80
2012,08,29,00,39,13.80
2012,08,29,00,40,13.80
2012,08,29,00,41,13.80
2012,08,29,00,42,13.80
2012,08,29,00,43,13.80
2012,08,29,00,44,13.70
2012,08,29,00,45,13.70
2012,08,29,00,46,13.70
2012,08,29,00,47,13.70
2012,08,29,00,48,13.70
2012,08,29,00,49,13.60
2012,08,29,00,50,13.60
2012,08,29,00,51,13.60
2012,08,29,00,52,13.50
2012,08,29,00,53,13.50
2012,08,29,00,54,13.50
2012,08,29,00,55,13.50
2012,08,29,00,56,13.40
2012,08,29,00,57,13.40
2012,08,29,00,58,13.40
2012,08,29,00,59,13.30
2012,08,29,01,00,13.30
2012,08,29,01,01,13.30
2012,08,29,01,02,13.20
2012,08,29,01,03,13.20
2012,08,29,01,04,13.20
2012,08,29,01,05,13.10
2012,08,29,01,06,13.10
2012,08,29,01,07,13.10
2012,08,29,01,08,13.10
2012,08,29,01,09,13.10
2012,08,29,01,10,13.00
2012,08,29,01,11,13.00
2012,08,29,01,12,13.00
2012,08,29,01,13,13.00
2012,08,29,01,14,12.90
2012,08,29,01,15,12.90
2012,08,29,01,16,12.90
2012,08,29,01,17,12.90
2012,08,29,01,18,12.90
2012,08,29,01,19,12.90
2012,08,29,01,20,12.90
2012,08,29,01,21,12.80
2012,08,29,01,22,12.80
2012,08,29,01,23,12.80
2012,08,29,01,24,12.80
2012,08,29,01,25,12.80
2012,08,29,01,26,12.80
2012,08,29,01,27,12.70
2012,08,29,01,28,12.70
2012,08,29,01,29,12.70
2012,08,29,01,30,12.70
2012,08,29,01,31,12.70
2012,08,29,01,32,12.70
2012,08,29,01,33,12.70
2012,08,29,01,34,12.70
2012,08,29,01,35,12.60
2012,08,29,01,36,12.60
2012,08,29,01,37,12.60
2012,08,29,01,38,12.60
2012,08,29,01,39,12.60
2012,08,29,01,40,12.60
2012,08,29,01,41,12.60
2012,08,29,01,42,12.60
2012,08,29,01,43,12.70
2012,08,29,01,44,12.70
2012,08,29,01,45,12.70
2012,08,29,01,46,12.70
2012,08,29,01,47,12.70
2012,08,29,01,48,12.70
2012,08,29,01,49,12.80
2012,08,29,01,50,12.80
2012,08,29,01,51,12.80
2012,08,29,01,52,12.80
2012,08,29,01,53,12.80
2012,08,29,01,54,12.70
2012,08,29,01,55,12.70
2012,08,29,01,56,12.70
2012,08,29,01,57,12.70
2012,08,29,01,58,12.70
2012,08,29,01,59,12.70
2012,08,29,02,00,12.70
2012,08,29,02,01,12.70
2012,08,29,02,02,12.70
2012,08,29,02,03,12.70
2012,08,29,02,04,12.70
2012,08,29,02,05,12.70
2012,08,29,02,06,12.70
2012,08,29,02,07,12.70
2012,08,29,02,08,12.70
2012,08,29,02,09,12.70
2012,08,29,02,10,12.80
2012,08,29,02,11,12.80
2012,08,29,02,12,12.80
2012,08,29,02,13,12.90
2012,08,29,02,14,13.00
2012,08,29,02,15,13.00
2012,08,29,02,16,13.10
2012,08,29,02,17,13.30
2012,08,29,02,18,13.50
2012,08,29,02,19,13.60
2012,08,29,02,20,13.80
2012,08,29,02,21,13.90
2012,08,29,02,22,14.10
2012,08,29,02,23,14.20
2012,08,29,02,24,14.30
2012,08,29,02,25,14.50
2012,08,29,02,26,14.60
2012,08,29,02,27,14.70
2012,08,29,02,28,14.80
2012,08,29,02,29,14.90
2012,08,29,02,30,14.90
2012,08,29,02,31,15.00
2012,08,29,02,32,15.10
2012,08,29,02,33,15.10
2012,08,29,02,34,15.20
2012,08,29,02,35,15.20
2012,08,29,02,36,15.30
2012,08,29,02,37,15.30
2012,08,29,02,38,15.30
2012,08,29,02,39,15.40
2012,08,29,02,40,15.50
2012,08,29,02,41,15.50
2012,08,29,02,42,15.60
2012,08,29,02,43,15.60
2012,08,29,02,44,15.60
2012,08,29,02,45,15.60
2012,08,29,02,46,15.70
2012,08,29,02,47,15.70
2012,08,29,02,48,15.70
2012,08,29,02,49,15.70
2012,08,29,02,50,15.70
2012,08,29,02,51,15.70
2012,08,29,02,52,15.70
2012,08,29,02,53,15.70
2012,08,29,02,54,15.70
2012,08,29,02,55,15.70
2012,08,29,02,56,15.70
2012,08,29,02,57,15.70
2012,08,29,02,58,15.70
2012,08,29,02,59,15.60
2012,08,29,03,00,15.60
2012,08,29,03,01,15.60
2012,08,29,03,02,15.50
2012,08,29,03,03,15.40
2012,08,29,03,04,15.40
2012,08,29,03,05,15.30
2012,08,29,03,06,15.20
2012,08,29,03,07,15.20
2012,08,29,03,08,15.10
2012,08,29,03,09,15.00
2012,08,29,03,10,15.00
2012,08,29,03,11,14.90
2012,08,29,03,12,14.80
2012,08,29,03,13,14.80
2012,08,29,03,14,14.80
2012,08,29,03,15,14.70
2012,08,29,03,16,14.70
2012,08,29,03,17,14.60
2012,08,29,03,18,14.60
2012,08,29,03,19,14.60
2012,08,29,03,20,14.60
2012,08,29,03,21,14.50
2012,08,29,03,22,14.50
2012,08,29,03,23,14.50
2012,08,29,03,24,14.50
2012,08,29,03,25,14.50
2012,08,29,03,26,14.50
2012,08,29,03,27,14.50
2012,08,29,03,28,14.50
2012,08,29,03,29,14.50
2012,08,29,03,30,14.60
2012,08,29,03,31,14.60
2012,08,29,03,32,14.60
2012,08,29,03,33,14.70
2012,08,29,03,34,14.80
2012,08,29,03,35,14.80
2012,08,29,03,36,14.90
2012,08,29,03,37,14.90
2012,08,29,03,38,14.90
2012,08,29,03,39,14.90
2012,08,29,03,40,15.00
2012,08,29,03,41,15.00
2012,08,29,03,42,15.00
2012,08,29,03,43,15.00
2012,08,29,03,44,15.10
2012,08,29,03,45,15.10
2012,08,29,03,46,15.10
2012,08,29,03,47,15.10
2012,08,29,03,48,15.10
2012,08,29,03,49,15.10
2012,08,29,03,50,15.10
2012,08,29,03,51,15.20
2012,08,29,03,52,15.20
2012,08,29,03,53,15.20
2012,08,29,03,54,15.20
2012,08,29,03,55,15.20
2012,08,29,03,56,15.30
2012,08,29,03,57,15.30
2012,08,29,03,58,15.30
2012,08,29,03,59,15.30
2012,08,29,04,00,15.30
2012,08,29,04,01,15.30
2012,08,29,04,02,15.30
2012,08,29,04,03,15.30
2012,08,29,04,04,15.30
2012,08,29,04,05,15.30
2012,08,29,04,06,15.30
2012,08,29,04,07,15.30
2012,08,29,04,08,15.30
2012,08,29,04,09,15.30
2012,08,29,04,10,15.30
2012,08,29,04,11,15.30
2012,08,29,04,12,15.30
2012,08,29,04,13,15.30
2012,08,29,04,14,15.30
2012,08,29,04,15,15.30
2012,08,29,04,16,15.30
2012,08,29,04,17,15.30
2012,08,29,04,18,15.30
2012,08,29,04,19,15.30
2012,08,29,04,20,15.30
2012,08,29,04,21,15.30
2012,08,29,04,22,15.30
2012,08,29,04,23,15.30
2012,08,29,04,24,15.40
2012,08,29,04,25,15.40
2012,08,29,04,26,15.40
2012,08,29,04,27,15.40
2012,08,29,04,28,15.40
2012,08,29,04,29,15.40
2012,08,29,04,30,15.40
2012,08,29,04,31,15.40
2012,08,29,04,32,15.40
2012,08,29,04,33,15.40
2012,08,29,04,34,15.40
2012,08,29,04,35,15.40
2012,08,29,04,36,15.40
2012,08,29,04,37,15.40
2012,08,29,04,38,15.40
2012,08,29,04,39,15.40
2012,08,29,04,40,15.30
2012,08,29,04,41,15.30
2012,08,29,04,42,15.30
2012,08,29,04,43,15.30
2012,08,29,04,44,15.30
2012,08,29,04,45,15.30
2012,08,29,04,46,15.30
2012,08,29,04,47,15.30
2012,08,29,04,48,15.20
2012,08,29,04,49,15.20
2012,08,29,04,50,15.10
2012,08,29,04,51,15.10
2012,08,29,04,52,15.00
2012,08,29,04,53,15.00
2012,08,29,04,54,14.90
2012,08,29,04,55,14.90
2012,08,29,04,56,14.80
2012,08,29,04,57,14.70
2012,08,29,04,58,14.70
2012,08,29,04,59,14.60
2012,08,29,05,00,14.60
2012,08,29,05,01,14.50
2012,08,29,05,02,14.50
2012,08,29,05,03,14.40
2012,08,29,05,04,14.40
2012,08,29,05,05,14.30
2012,08,29,05,06,14.30
2012,08,29,05,07,14.30
2012,08,29,05,08,14.20
2012,08,29,05,09,14.20
2012,08,29,05,10,14.10
2012,08,29,05,11,14.10
2012,08,29,05,12,14.10
2012,08,29,05,13,14.00
2012,08,29,05,14,14.00
2012,08,29,05,15,13.90
2012,08,29,05,16,13.90
2012,08,29,05,17,13.90
2012,08,29,05,18,13.80
2012,08,29,05,19,13.80
2012,08,29,05,20,13.80
2012,08,29,05,21,13.70
2012,08,29,05,22,13.70
2012,08,29,05,23,13.70
2012,08,29,05,24,13.70
2012,08,29,05,25,13.60
2012,08,29,05,26,13.60
2012,08,29,05,27,13.60
2012,08,29,05,28,13.50
2012,08,29,05,29,13.50
2012,08,29,05,30,13.50
2012,08,29,05,31,13.40
2012,08,29,05,32,13.40
2012,08,29,05,33,13.40
2012,08,29,05,34,13.40
2012,08,29,05,35,13.40
2012,08,29,05,36,13.30
2012,08,29,05,37,13.30
2012,08,29,05,38,13.30
2012,08,29,05,39,13.30
2012,08,29,05,40,13.30
2012,08,29,05,41,13.20
2012,08,29,05,42,13.20
2012,08,29,05,43,13.20
2012,08,29,05,44,13.10
2012,08,29,05,45,13.10
2012,08,29,05,46,13.10
2012,08,29,05,47,13.10
2012,08,29,05,48,13.00
2012,08,29,05,49,13.00
2012,08,29,05,50,12.90
2012,08,29,05,51,12.90
2012,08,29,05,52,12.90
2012,08,29,05,53,12.90
2012,08,29,05,54,12.90
2012,08,29,05,55,12.90
2012,08,29,05,56,12.90
2012,08,29,05,57,12.90
2012,08,29,05,58,12.90
2012,08,29,05,59,12.80
2012,08,29,06,00,12.80
2012,08,29,06,01,12.80
2012,08,29,06,02,12.80
2012,08,29,06,03,12.80
2012,08,29,06,04,12.80
2012,08,29,06,05,12.80
2012,08,29,06,06,12.80
2012,08,29,06,07,12.80
2012,08,29,06,08,12.80
2012,08,29,06,09,12.80
2012,08,29,06,10,12.80
2012,08,29,06,11,12.80
2012,08,29,06,12,12.80
2012,08,29,06,13,12.80
2012,08,29,06,14,12.80
2012,08,29,06,15,12.80
2012,08,29,06,16,12.80
2012,08,29,06,17,12.80
2012,08,29,06,18,12.80
2012,08,29,06,19,12.80
2012,08,29,06,20,12.80
2012,08,29,06,21,12.80
2012,08,29,06,22,12.80
2012,08,29,06,23,12.80
2012,08,29,06,24,12.80
2012,08,29,06,25,12.80
2012,08,29,06,26,12.80
2012,08,29,06,27,12.80
2012,08,29,06,28,12.80
2012,08,29,06,29,12.80
2012,08,29,06,30,12.80
2012,08,29,06,31,12.80
2012,08,29,06,32,12.80
2012,08,29,06,33,12.80
2012,08,29,06,34,12.80
2012,08,29,06,35,12.80
2012,08,29,06,36,12.80
2012,08,29,06,37,12.80
2012,08,29,06,38,12.80
2012,08,29,06,39,12.80
2012,08,29,06,40,12.80
2012,08,29,06,41,12.80
2012,08,29,06,42,12.90
2012,08,29,06,43,12.90
2012,08,29,06,44,12.90
2012,08,29,06,45,12.90
2012,08,29,06,46,12.90
2012,08,29,06,47,12.90
2012,08,29,06,48,12.90
2012,08,29,06,49,12.90
2012,08,29,06,50,12.90
2012,08,29,06,51,12.90
2012,08,29,06,52,12.90
2012,08,29,06,53,12.90
2012,08,29,06,54,12.90
2012,08,29,06,55,12.90
2012,08,29,06,56,12.90
2012,08,29,06,57,12.90
2012,08,29,06,58,12.90
2012,08,29,06,59,12.90
2012,08,29,07,00,12.90
2012,08,29,07,01,12.90
2012,08,29,07,02,12.90
2012,08,29,07,03,12.90
2012,08,29,07,04,12.90
2012,08,29,07,05,12.90
2012,08,29,07,06,12.90
2012,08,29,07,07,12.90
2012,08,29,07,08,12.90
2012,08,29,07,09,12.90
2012,08,29,07,10,12.90
2012,08,29,07,11,12.90
2012,08,29,07,12,12.90
2012,08,29,07,13,12.90
2012,08,29,07,14,13.00
2012,08,29,07,15,13.00
2012,08,29,07,16,13.00
2012,08,29,07,17,12.90
2012,08,29,07,18,12.90
2012,08,29,07,19,12.90
2012,08,29,07,20,12.90
2012,08,29,07,21,12.90
2012,08,29,07,22,12.90
2012,08,29,07,23,12.90
2012,08,29,07,24,12.90
2012,08,29,07,25,12.90
2012,08,29,07,26,12.90
2012,08,29,07,27,12.90
2012,08,29,07,28,12.90
2012,08,29,07,29,12.90
2012,08,29,07,30,12.90
2012,08,29,07,31,12.90
2012,08,29,07,32,12.90
2012,08,29,07,33,12.90
2012,08,29,07,34,12.90
2012,08,29,07,35,12.90
2012,08,29,07,36,12.90
2012,08,29,07,37,13.00
2012,08,29,07,38,13.00
2012,08,29,07,39,13.00
2012,08,29,07,40,13.00
2012,08,29,07,41,13.10
2012,08,29,07,42,13.10
2012,08,29,07,43,13.10
2012,08,29,07,44,13.10
2012,08,29,07,45,13.10
2012,08,29,07,46,13.10
2012,08,29,07,47,13.20
2012,08,29,07,48,13.20
2012,08,29,07,49,13.20
2012,08,29,07,50,13.20
2012,08,29,07,51,13.20
2012,08,29,07,52,13.20
2012,08,29,07,53,13.20
2012,08,29,07,54,13.20
2012,08,29,07,55,13.30
2012,08,29,07,56,13.30
2012,08,29,07,57,13.30
2012,08,29,07,58,13.30
2012,08,29,07,59,13.30
2012,08,29,08,00,13.30
2012,08,29,08,01,13.30
2012,08,29,08,02,13.40
2012,08,29,08,03,13.40
2012,08,29,08,04,13.40
2012,08,29,08,05,13.40
2012,08,29,08,06,13.50
2012,08,29,08,07,13.50
2012,08,29,08,08,13.50
2012,08,29,08,09,13.60
2012,08,29,08,10,13.60
2012,08,29,08,11,13.60
2012,08,29,08,12,13.70
2012,08,29,08,13,13.70
2012,08,29,08,14,13.70
2012,08,29,08,15,13.70
2012,08,29,08,16,13.80
2012,08,29,08,17,13.80
2012,08,29,08,18,13.80
2012,08,29,08,19,13.80
2012,08,29,08,20,13.80
2012,08,29,08,21,13.90
2012,08,29,08,22,13.90
2012,08,29,08,23,13.90
2012,08,29,08,24,13.90
2012,08,29,08,25,13.90
2012,08,29,08,26,13.90
2012,08,29,08,27,13.90
2012,08,29,08,28,13.90
2012,08,29,08,29,13.90
2012,08,29,08,30,13.90
2012,08,29,08,31,13.90
2012,08,29,08,32,13.90
2012,08,29,08,33,13.90
2012,08,29,08,34,13.90
2012,08,29,08,35,13.90
2012,08,29,08,36,13.90
2012,08,29,08,37,13.90
2012,08,29,08,38,13.90
2012,08,29,08,39,13.90
2012,08,29,08,40,13.90
2012,08,29,08,41,13.90
2012,08,29,08,42,14.00
2012,08,29,08,43,14.00
2012,08,29,08,44,14.00
2012,08,29,08,45,14.00
2012,08,29,08,46,14.10
2012,08,29,08,47,14.10
2012,08,29,08,48,14.10
2012,08,29,08,49,14.10
2012,08,29,08,50,14.10
2012,08,29,08,51,14.20
2012,08,29,08,52,14.20
2012,08,29,08,53,14.20
2012,08,29,08,54,14.20
2012,08,29,08,55,14.20
2012,08,29,08,56,14.30
2012,08,29,08,57,14.30
2012,08,29,08,58,14.30
2012,08,29,08,59,14.30
2012,08,29,09,00,14.40
2012,08,29,09,01,14.40
2012,08,29,09,02,14.40
2012,08,29,09,03,14.50
2012,08,29,09,04,14.50
2012,08,29,09,05,14.50
2012,08,29,09,06,14.60
2012,08,29,09,07,14.60
2012,08,29,09,08,14.60
2012,08,29,09,09,14.60
2012,08,29,09,10,14.60
2012,08,29,09,11,14.70
2012,08,29,09,12,14.70
2012,08,29,09,13,14.70
2012,08,29,09,14,14.70
2012,08,29,09,15,14.70
2012,08,29,09,16,14.70
2012,08,29,09,17,14.70
2012,08,29,09,18,14.70
2012,08,29,09,19,14.70
2012,08,29,09,20,14.80
2012,08,29,09,21,14.80
2012,08,29,09,22,14.80
2012,08,29,09,23,14.80
2012,08,29,09,24,14.80
2012,08,29,09,25,14.80
2012,08,29,09,26,14.80
2012,08,29,09,27,14.90
2012,08,29,09,28,14.90
2012,08,29,09,29,14.90
2012,08,29,09,30,14.90
2012,08,29,09,31,14.90
2012,08,29,09,32,14.90
2012,08,29,09,33,14.90
2012,08,29,09,34,14.90
2012,08,29,09,35,14.90
2012,08,29,09,36,14.90
2012,08,29,09,37,14.80
2012,08,29,09,38,14.80
2012,08,29,09,39,14.80
2012,08,29,09,40,14.80
2012,08,29,09,41,14.80
2012,08,29,09,42,14.80
2012,08,29,09,43,14.80
2012,08,29,09,44,14.80
2012,08,29,09,45,14.80
2012,08,29,09,46,14.80
2012,08,29,09,47,14.80
2012,08,29,09,48,14.80
2012,08,29,09,49,14.80
2012,08,29,09,50,14.70
2012,08,29,09,51,14.70
2012,08,29,09,52,14.60
2012,08,29,09,53,14.60
2012,08,29,09,54,14.60
2012,08,29,09,55,14.60
2012,08,29,09,56,14.60
2012,08,29,09,57,14.60
2012,08,29,09,58,14.60
2012,08,29,09,59,14.60
2012,08,29,10,00,14.60
2012,08,29,10,01,14.60
2012,08,29,10,02,14.60
2012,08,29,10,03,14.60
2012,08,29,10,04,14.60
2012,08,29,10,05,14.60
2012,08,29,10,06,14.70
2012,08,29,10,07,14.70
2012,08,29,10,08,14.80
2012,08,29,10,09,14.80
2012,08,29,10,10,14.80
2012,08,29,10,11,14.80
2012,08,29,10,12,14.80
2012,08,29,10,13,14.90
2012,08,29,10,14,14.90
2012,08,29,10,15,14.90
2012,08,29,10,16,15.00
2012,08,29,10,17,15.00
2012,08,29,10,18,15.10
2012,08,29,10,19,15.10
2012,08,29,10,20,15.20
2012,08,29,10,21,15.30
2012,08,29,10,22,15.30
2012,08,29,10,23,15.40
2012,08,29,10,24,15.40
2012,08,29,10,25,15.50
2012,08,29,10,26,15.60
2012,08,29,10,27,15.70
2012,08,29,10,28,15.80
2012,08,29,10,29,15.80
2012,08,29,10,30,15.90
2012,08,29,10,31,15.90
2012,08,29,10,32,15.90
2012,08,29,10,33,15.90
2012,08,29,10,34,15.90
2012,08,29,10,35,15.90
2012,08,29,10,36,15.90
2012,08,29,10,37,16.00
2012,08,29,10,38,16.00
2012,08,29,10,39,16.00
2012,08,29,10,40,16.00
2012,08,29,10,41,16.00
2012,08,29,10,42,16.00
2012,08,29,10,43,16.00
2012,08,29,10,44,16.10
2012,08,29,10,45,16.10
2012,08,29,10,46,16.10
2012,08,29,10,47,16.10
2012,08,29,10,48,16.10
2012,08,29,10,49,16.10
2012,08,29,10,50,16.10
2012,08,29,10,51,16.10
2012,08,29,10,52,16.10
2012,08,29,10,53,16.20
2012,08,29,10,54,16.20
2012,08,29,10,55,16.20
2012,08,29,10,56,16.20
2012,08,29,10,57,16.20
2012,08,29,10,58,16.20
2012,08,29,10,59,16.20
2012,08,29,11,00,16.20
2012,08,29,11,01,16.20
2012,08,29,11,02,16.20
2012,08,29,11,03,16.20
2012,08,29,11,04,16.30
2012,08,29,11,05,16.30
2012,08,29,11,06,16.30
2012,08,29,11,07,16.40
2012,08,29,11,08,16.40
2012,08,29,11,09,16.40
2012,08,29,11,10,16.40
2012,08,29,11,11,16.40
2012,08,29,11,12,16.40
2012,08,29,11,13,16.30
2012,08,29,11,14,16.30
2012,08,29,11,15,16.30
2012,08,29,11,16,16.40
2012,08,29,11,17,16.40
2012,08,29,11,18,16.50
2012,08,29,11,19,16.50
2012,08,29,11,20,16.60
2012,08,29,11,21,16.60
2012,08,29,11,22,16.60
2012,08,29,11,23,16.60
2012,08,29,11,24,16.60
2012,08,29,11,25,16.60
2012,08,29,11,26,16.60
2012,08,29,11,27,16.50
2012,08,29,11,28,16.50
2012,08,29,11,29,16.50
2012,08,29,11,30,16.50
2012,08,29,11,31,16.40
2012,08,29,11,32,16.40
2012,08,29,11,33,16.40
2012,08,29,11,34,16.40
2012,08,29,11,35,16.50
2012,08,29,11,36,16.50
2012,08,29,11,37,16.50
2012,08,29,11,38,16.50
2012,08,29,11,39,16.50
2012,08,29,11,40,16.60
2012,08,29,11,41,16.60
2012,08,29,11,42,16.60
2012,08,29,11,43,16.60
2012,08,29,11,44,16.60
2012,08,29,11,45,16.60
2012,08,29,11,46,16.50
2012,08,29,11,47,16.50
2012,08,29,11,48,16.50
2012,08,29,11,49,16.50
2012,08,29,11,50,16.50
2012,08,29,11,51,16.50
2012,08,29,11,52,16.50
2012,08,29,11,53,16.50
2012,08,29,11,54,16.50
2012,08,29,11,55,16.50
2012,08,29,11,56,16.40
2012,08,29,11,57,16.40
2012,08,29,11,58,16.40
2012,08,29,11,59,16.40
2012,08,29,12,00,16.40
2012,08,29,12,01,16.40
2012,08,29,12,02,16.40
2012,08,29,12,03,16.40
2012,08,29,12,04,16.40
2012,08,29,12,05,16.30
2012,08,29,12,06,16.30
2012,08,29,12,07,16.30
2012,08,29,12,08,16.30
2012,08,29,12,09,16.30
2012,08,29,12,10,16.30
2012,08,29,12,11,16.30
2012,08,29,12,12,16.30
2012,08,29,12,13,16.40
2012,08,29,12,14,16.40
2012,08,29,12,15,16.50
2012,08,29,12,16,16.50
2012,08,29,12,17,16.50
2012,08,29,12,18,16.50
2012,08,29,12,19,16.60
2012,08,29,12,20,16.60
2012,08,29,12,21,16.70
2012,08,29,12,22,16.80
2012,08,29,12,23,16.90
2012,08,29,12,24,16.90
2012,08,29,12,25,17.00
2012,08,29,12,26,17.10
2012,08,29,12,27,17.10
2012,08,29,12,28,17.10
2012,08,29,12,29,17.20
2012,08,29,12,30,17.30
2012,08,29,12,31,17.40
2012,08,29,12,32,17.40
2012,08,29,12,33,17.40
2012,08,29,12,34,17.50
2012,08,29,12,35,17.50
2012,08,29,12,36,17.50
2012,08,29,12,37,17.50
2012,08,29,12,38,17.60
2012,08,29,12,39,17.60
2012,08,29,12,40,17.60
2012,08,29,12,41,17.60
2012,08,29,12,42,17.70
2012,08,29,12,43,17.70
2012,08,29,12,44,17.70
2012,08,29,12,45,17.70
2012,08,29,12,46,17.70
2012,08,29,12,47,17.80
2012,08,29,12,48,17.80
2012,08,29,12,49,17.80
2012,08,29,12,50,17.80
2012,08,29,12,51,17.70
2012,08,29,12,52,17.60
2012,08,29,12,53,17.40
2012,08,29,12,54,17.40
2012,08,29,12,55,17.30
2012,08,29,12,56,17.30
2012,08,29,12,57,17.30
2012,08,29,12,58,17.30
2012,08,29,12,59,17.30
2012,08,29,13,00,17.30
2012,08,29,13,01,17.30
2012,08,29,13,02,17.30
2012,08,29,13,03,17.20
2012,08,29,13,04,17.20
2012,08,29,13,05,17.20
2012,08,29,13,06,17.20
2012,08,29,13,07,17.30
2012,08,29,13,08,17.30
2012,08,29,13,09,17.40
2012,08,29,13,10,17.50
2012,08,29,13,11,17.50
2012,08,29,13,12,17.60
2012,08,29,13,13,17.70
2012,08,29,13,14,17.70
2012,08,29,13,15,17.80
2012,08,29,13,16,17.80
2012,08,29,13,17,17.90
2012,08,29,13,18,17.90
2012,08,29,13,19,18.00
2012,08,29,13,20,18.00
2012,08,29,13,21,18.00
2012,08,29,13,22,17.90
2012,08,29,13,23,17.90
2012,08,29,13,24,17.90
2012,08,29,13,25,18.00
2012,08,29,13,26,18.00
2012,08,29,13,27,18.10
2012,08,29,13,28,18.20
2012,08,29,13,29,18.30
2012,08,29,13,30,18.40
2012,08,29,13,31,18.50
2012,08,29,13,32,18.60
2012,08,29,13,33,18.70
2012,08,29,13,34,18.80
2012,08,29,13,35,18.80
2012,08,29,13,36,18.90
2012,08,29,13,37,18.90
2012,08,29,13,38,18.90
2012,08,29,13,39,18.80
2012,08,29,13,40,18.70
2012,08,29,13,41,18.60
2012,08,29,13,42,18.40
2012,08,29,13,43,18.30
2012,08,29,13,44,18.20
2012,08,29,13,45,18.10
2012,08,29,13,46,18.10
2012,08,29,13,47,18.00
2012,08,29,13,48,18.00
2012,08,29,13,49,17.90
2012,08,29,13,50,17.90
2012,08,29,13,51,17.90
2012,08,29,13,52,17.90
2012,08,29,13,53,17.90
2012,08,29,13,54,17.90
2012,08,29,13,55,17.90
2012,08,29,13,56,17.80
2012,08,29,13,57,17.80
2012,08,29,13,58,17.90
2012,08,29,13,59,17.90
2012,08,29,14,00,18.00
2012,08,29,14,01,18.00
2012,08,29,14,02,18.10
2012,08,29,14,03,18.10
2012,08,29,14,04,18.10
2012,08,29,14,05,18.10
2012,08,29,14,06,18.10
2012,08,29,14,07,18.10
2012,08,29,14,08,18.00
2012,08,29,14,09,18.00
2012,08,29,14,10,18.00
2012,08,29,14,11,17.90
2012,08,29,14,12,17.90
2012,08,29,14,13,17.90
2012,08,29,14,14,17.80
2012,08,29,14,15,17.80
2012,08,29,14,16,17.80
2012,08,29,14,17,17.90
2012,08,29,14,18,17.90
2012,08,29,14,19,18.00
2012,08,29,14,20,18.10
2012,08,29,14,21,18.20
2012,08,29,14,22,18.30
2012,08,29,14,23,18.30
2012,08,29,14,24,18.30
2012,08,29,14,25,18.30
2012,08,29,14,26,18.30
2012,08,29,14,27,18.30
2012,08,29,14,28,18.20
2012,08,29,14,29,18.20
2012,08,29,14,30,18.20
2012,08,29,14,31,18.20
2012,08,29,14,32,18.20
2012,08,29,14,33,18.20
2012,08,29,14,34,18.20
2012,08,29,14,35,18.20
2012,08,29,14,36,18.20
2012,08,29,14,37,18.20
2012,08,29,14,38,18.20
2012,08,29,14,39,18.20
2012,08,29,14,40,18.20
2012,08,29,14,41,18.20
2012,08,29,14,42,18.20
2012,08,29,14,43,18.20
2012,08,29,14,44,18.20
2012,08,29,14,45,18.20
2012,08,29,14,46,18.10
2012,08,29,14,47,18.10
2012,08,29,14,48,18.20
2012,08,29,14,49,18.20
2012,08,29,14,50,18.30
2012,08,29,14,51,18.30
2012,08,29,14,52,18.40
2012,08,29,14,53,18.50
2012,08,29,14,54,18.60
2012,08,29,14,55,18.70
2012,08,29,14,56,18.80
2012,08,29,14,57,18.80
2012,08,29,14,58,18.80
2012,08,29,14,59,18.80
2012,08,29,15,00,18.70
2012,08,29,15,01,18.70
2012,08,29,15,02,18.60
2012,08,29,15,03,18.60
2012,08,29,15,04,18.60
2012,08,29,15,05,18.60
2012,08,29,15,06,18.60
2012,08,29,15,07,18.60
2012,08,29,15,08,18.70
2012,08,29,15,09,18.70
2012,08,29,15,10,18.70
2012,08,29,15,11,18.70
2012,08,29,15,12,18.80
2012,08,29,15,13,18.80
2012,08,29,15,14,18.80
2012,08,29,15,15,18.80
2012,08,29,15,16,18.80
2012,08,29,15,17,18.80
2012,08,29,15,18,18.80
2012,08,29,15,19,18.90
2012,08,29,15,20,18.90
2012,08,29,15,21,18.90
2012,08,29,15,22,18.90
2012,08,29,15,23,19.00
2012,08,29,15,24,19.00
2012,08,29,15,25,19.10
2012,08,29,15,26,19.10
2012,08,29,15,27,19.10
2012,08,29,15,28,19.10
2012,08,29,15,29,19.10
2012,08,29,15,30,19.20
2012,08,29,15,31,19.20
2012,08,29,15,32,19.30
2012,08,29,15,33,19.40
2012,08,29,15,34,19.50
2012,08,29,15,35,19.60
2012,08,29,15,36,19.70
2012,08,29,15,37,19.70
2012,08,29,15,38,19.70
2012,08,29,15,39,19.70
2012,08,29,15,40,19.70
2012,08,29,15,41,19.70
2012,08,29,15,42,19.70
2012,08,29,15,43,19.70
2012,08,29,15,44,19.70
2012,08,29,15,45,19.70
2012,08,29,15,46,19.70
2012,08,29,15,47,19.70
2012,08,29,15,48,19.70
2012,08,29,15,49,19.70
2012,08,29,15,50,19.70
2012,08,29,15,51,19.70
2012,08,29,15,52,19.70
2012,08,29,15,53,19.60
2012,08,29,15,54,19.60
2012,08,29,15,55,19.50
2012,08,29,15,56,19.50
2012,08,29,15,57,19.40
2012,08,29,15,58,19.40
2012,08,29,15,59,19.40
2012,08,29,16,00,19.40
2012,08,29,16,01,19.40
2012,08,29,16,02,19.40
2012,08,29,16,03,19.40
2012,08,29,16,04,19.40
2012,08,29,16,05,19.40
2012,08,29,16,06,19.40
2012,08,29,16,07,19.30
2012,08,29,16,08,19.30
2012,08,29,16,09,19.30
2012,08,29,16,10,19.30
2012,08,29,16,11,19.30
2012,08,29,16,12,19.30
2012,08,29,16,13,19.30
2012,08,29,16,14,19.30
2012,08,29,16,15,19.30
2012,08,29,16,16,19.30
2012,08,29,16,17,19.20
2012,08,29,16,18,19.20
2012,08,29,16,19,19.10
2012,08,29,16,20,19.10
2012,08,29,16,21,19.10
2012,08,29,16,22,19.10
2012,08,29,16,23,19.10
2012,08,29,16,24,19.00
2012,08,29,16,25,19.10
2012,08,29,16,26,19.10
2012,08,29,16,27,19.00
2012,08,29,16,28,19.00
2012,08,29,16,29,18.90
2012,08,29,16,30,18.90
2012,08,29,16,31,18.80
2012,08,29,16,32,18.80
2012,08,29,16,33,18.70
2012,08,29,16,34,18.70
2012,08,29,16,35,18.70
2012,08,29,16,36,18.70
2012,08,29,16,37,18.70
2012,08,29,16,38,18.70
2012,08,29,16,39,18.70
2012,08,29,16,40,18.70
2012,08,29,16,41,18.70
2012,08,29,16,42,18.70
2012,08,29,16,43,18.70
2012,08,29,16,44,18.70
2012,08,29,16,45,18.70
2012,08,29,16,46,18.70
2012,08,29,16,47,18.70
2012,08,29,16,48,18.70
2012,08,29,16,49,18.70
2012,08,29,16,50,18.70
2012,08,29,16,51,18.70
2012,08,29,16,52,18.70
2012,08,29,16,53,18.70
2012,08,29,16,54,18.80
2012,08,29,16,55,18.80
2012,08,29,16,56,18.80
2012,08,29,16,57,18.90
2012,08,29,16,58,19.00
2012,08,29,16,59,19.00
2012,08,29,17,00,19.10
2012,08,29,17,01,19.10
2012,08,29,17,02,19.20
2012,08,29,17,03,19.30
2012,08,29,17,04,19.30
2012,08,29,17,05,19.50
2012,08,29,17,06,19.60
2012,08,29,17,07,19.70
2012,08,29,17,08,19.80
2012,08,29,17,09,19.80
2012,08,29,17,10,19.90
2012,08,29,17,11,19.90
2012,08,29,17,12,20.00
2012,08,29,17,13,20.00
2012,08,29,17,14,20.10
2012,08,29,17,15,20.10
2012,08,29,17,16,20.10
2012,08,29,17,17,20.10
2012,08,29,17,18,20.10
2012,08,29,17,19,20.10